STARLINK-30338, 57718

Orbit data source: Space-Track

STARLINK-30338, 57718 is a payload satellite owned by SpaceX/Seattle (US) in LEO that was launched on Sun, 27 Aug 2023 UTC via an FALCON 9 launch vehicle from the Air Force Eastern Test Range (AFETR). Payload-class satellites include a variety of spacecraft equipped with specific instruments for various scientific and technological missions. These include communications satellites like Starlink; space stations such as the ISS; scientific satellites like the Hubble; Earth observation satellites from companies like Planet Labs, Umbra, and HawkEye 360; GPS; miniature CubeSats for education and research; and military/defense satellites.

Loading next visibility...
Identifier
57718, 2023-129W
Orbit
LEO
Country
Flag of USUS
Related business
Manufacturer
SpaceX/Seattle
Mission
Operational Commercial Communications
Bus & Motor
STARLINK V2M, Unknown motor
Mass
730 kg wet, ~700 kg dry
Launch date (UTC)
2023-08-27 (3 years ago)
Launch vehicle
FALCON 9
Launch site
Air Force Eastern Test Range (AFETR)
Object type
Payload
Rocket body
Debris
Shape & HBR
Box + 2 Pan, 17.7 m
Radar Cross Section
33.884 m², Large (>1 m²)

Expand to show TLE details & history
Last TLE update: 2 days ago

TLE from 2 days ago
0 STARLINK-30338
1 57718U 23129W   26171.24392995  .00001736  00000-0  72587-4 0  9995
2 57718  43.0064 259.0106 0002265 279.1900  80.8696 15.27585819156362
Epoch: 2026-06-20T05:51Z
TLE epoch observation values (Epoch: 2026-06-20T05:51:15.547Z)
Latitude
0.00001°
Longitude
-97.26551°
Altitude
482.562 km
Speed
7.626 km/s
True Right ascension
17h 16m 02s
True Declination
0° 00' 00"
Sunlit
Object was in full shadow at epoch
Visualization orbit readout
Latitude
Unknown
Longitude
Unknown
Altitude
Unknown
Speed
Unknown
Apparent Right ascension
Unknown
Apparent Declination
Unknown
Sunlit
N/A
Visualization observer readout
Local Sidereal Time
21:23:58
Azimuth
Unknown
Elevation
Unknown
Doppler factor
Unknown
Orbital elements
Apogee altitude
486.53 km
Perigee altitude
483.421 km
Semi-major axis
6,863.113 km
Eccentricity
0.00023
Inclination
43.0064°
RAAN
259.0106°
Arg. of periapsis
279.19°
True anomaly
80.89523°
Mean anomaly
80.8696°
Eccentric anomaly
80.88241°
Mean motion
3.81735 °/min
Orbital period
94.31 mins
BSTAR
0.000072587
Loading maneuver chart data...
Computing Atmospheric mass density...
Loading historical data...
Loading historical data...
Loading historical data...
Loading historical data...
Loading historical data...
Loading historical data...
Loading historical data...

Documentation

Showing up to 5 results
|